Location: Newark
(49.2842°N, 3.4494°E)
Time: 18:50:50
(UTC+00:00)

OTV 5 (USA 277) - Visible Passes

Search period start: 15 October 2019 00:00
Search period end: 25 October 2019 00:00
Orbit: 310 x 324 km, 54.5° (Epoch: 08 October)

Date Brightness Start Highest point End Pass type
(mag) Time Alt. Az. Time Alt. Az. Time Alt. Az.
15 Oct ? 03:53:05 23° NE 03:53:05 23° NE 03:54:43 10° ENE visible
15 Oct ? 05:24:06 10° WNW 05:26:52 85° NE 05:29:37 10° ESE visible
16 Oct ? 04:07:19 35° NE 04:07:19 35° NE 04:09:36 10° E visible
17 Oct ? 04:21:38 60° NNE 04:21:40 60° NNE 04:24:24 10° ESE visible
18 Oct ? 04:36:01 61° WSW 04:36:15 66° SSW 04:38:58 10° SE visible
19 Oct ? 04:50:31 29° SW 04:50:43 29° SW 04:53:08 10° SSE visible
20 Oct ? 05:05:08 14° SW 05:05:08 14° SW 05:06:31 10° SSW visible
